Location: West Cummington
(42.4920°N, 72.9680°W)
Time: 18:05:24
(UTC-04:00)

Daily predictions for brighter satellites

Satellite Brightness Start Highest point End
(mag) Time Altitude Azimuth Time Altitude Azimuth Time Altitude Azimuth
Cosmos 2369 Rocket 3.7 18:54:46 10° N 18:58:36 18° NE 19:02:26 10° E
Aureole 2 Rocket 3.0 18:55:04 10° SSW 18:59:27 89° ESE 19:03:43 10° NNE
Cosmos 1766 Rocket 4.1 18:57:09 10° N 19:01:13 37° ENE 19:05:15 10° SE
Cosmos 1076 Rocket 3.8 18:57:31 10° N 19:01:41 45° ENE 19:05:51 10° SSE
NOSS 3-2 (A) 3.5 18:55:39 10° SSW 19:01:42 81° ESE 19:08:20 10° NE
NOAA 12 4.4 18:56:43 10° SE 19:01:44 47° ENE 19:06:47 10° N
Meteor 1-22 Rocket 4.0 18:57:47 10° S 19:03:06 75° E 19:08:23 10° NNE
Cosmos 1953 3.2 19:00:25 10° SSE 19:03:49 28° E 19:07:15 10° NNE
Cosmos 1707 4.0 19:01:00 10° NNW 19:04:44 47° W 19:08:26 10° SSW
ATLAS CENTAUR R/B 3.6 19:01:30 10° NW 19:05:03 27° WSW 19:08:21 10° S
Cosmos 1603 4.3 19:02:07 10° S 19:07:17 36° ESE 19:12:30 10° NE
Meteor 1-24 Rocket 3.8 19:02:20 10° N 19:07:59 85° W 19:13:24 10° S
SAR-Lupe-1 4.1 19:06:57 10° SSE 19:10:25 56° ENE 19:13:56 10° N
Cosmos-2242 3.7 19:07:05 10° SSE 19:10:57 32° E 19:14:53 10° NNE
Cosmos 1437 4.2 19:08:44 10° NNW 19:11:53 44° W 19:15:00 10° S
Cosmos 1452 Rocket 3.5 19:09:37 10° NNW 19:14:52 64° ENE 19:20:03 10° SSE
OAO 3 Rocket 4.3 19:10:47 10° WSW 19:15:01 33° S 19:19:20 10° ESE
MSX 4.5 19:10:16 10° S 19:15:56 62° W 19:21:39 10° NNW
Cosmos 2034 Rocket 4.1 19:13:05 10° SSE 19:19:07 53° E 19:25:16 10° NNE
Cosmos 1464 Rocket 4.0 19:13:24 10° S 19:19:35 72° E 19:25:45 10° NNE
In-Cosmos 22 4.3 19:14:56 10° N 19:20:42 65° ENE 19:26:23 10° SSE
Cosmos 1470 4.2 19:18:41 10° SE 19:21:16 17° E 19:23:51 10° NE
Cosmos 2333 Rocket 4.4 19:19:19 10° WSW 19:24:11 27° NW 19:29:02 10° N
ASTEX 1 4.4 19:20:38 10° NNE 19:24:34 23° E 19:28:27 10° SE
Spot 1 4.3 19:20:36 10° SSE 19:25:10 54° ENE 19:29:29 10° N
CZ-4C R/B 4.0 19:23:26 10° W 19:28:16 30° NW 19:33:39 10° NNE
Cosmos 1674 3.8 19:25:18 10° NNE 19:28:33 24° ENE 19:31:20 12° SE
CENTAUR R/B 3.2 19:25:36 10° SSE 19:30:39 29° ESE 19:36:10 10° NE
ATLAS CENTAUR R/B 3.7 19:27:37 10° SW 19:32:37 86° SE 19:49:10 10° NE
SJ-6B 3.0 19:29:02 10° S 19:33:02 80° WSW 19:37:08 10° NNW
Cosmos 1408 Rocket 3.5 19:28:47 10° N 19:33:09 88° E 19:37:28 10° S
Cosmos 1500 Rocket 4.4 19:29:54 10° NNE 19:33:50 30° ENE 19:37:37 11° SE
Cosmos 1842 Rocket 4.4 19:31:19 10° SSE 19:34:59 28° E 19:38:42 10° NNE
Cosmos 1420 Rocket 4.2 19:29:49 10° NNW 19:35:02 54° ENE 19:40:14 10° SE
Cosmos 724 4.3 19:30:52 10° SSW 19:36:46 75° ESE 19:42:51 10° NE
ATLAS 5 CENTAUR R/B 2.0 19:32:59 10° SW 19:37:46 76° NW 19:43:00 10° NNE
FengYun 1-2 T 4.3 19:35:11 10° SSE 19:40:32 55° ENE 19:45:53 10° N
NOSS 3-2 (C) 3.8 19:35:17 10° SW 19:41:22 71° NW 19:48:04 10° NNE
ALOS 2.6 19:42:12 10° SE 19:46:37 43° ENE 19:51:02 10° N
Cosmos 1758 3.4 19:43:28 10° S 19:47:33 84° W 19:51:41 10° N
Helios 1A 2.9 19:46:33 10° SSE 19:50:44 76° ENE 19:54:58 10° N
Spot 2 Rocket 3.4 19:46:00 10° SSE 19:51:02 87° ENE 19:56:07 10° NNW
ISS -3.1 19:50:41 10° SW 19:53:50 50° SE 19:54:44 37° E
Cosmos 1048 Rocket 4.0 19:49:28 10° S 19:54:40 59° ESE 19:59:50 10° NNE
Cosmos 1544 3.0 19:53:23 10° S 19:57:07 85° E 20:00:53 10° N
Cosmos 1269 Rocket 3.9 19:52:22 10° SSW 19:57:37 74° ESE 20:02:54 10° NNE
METEOR-M 4.4 19:54:04 10° S 19:59:24 72° WSW 20:04:46 10° NNW
Resurs 1-3 3.5 19:55:58 10° SSE 20:00:21 84° ENE 20:04:47 10° NNW
Meteor 1-21 Rocket 4.3 19:55:49 10° NNW 20:01:23 79° W 20:06:53 10° S
SL-8 R/B 3.6 19:56:58 10° SW 20:01:44 74° SSE 20:04:21 27° ENE
Envisat 4.4 20:02:22 19° ENE 20:02:22 19° ENE 20:05:46 10° NNE
Cosmos 1743 Rocket 3.5 19:58:41 10° N 20:03:09 88° E 20:07:32 10° S
SL-16 R/B 4.0 19:58:41 10° WSW 20:03:47 33° NW 20:08:55 10° N
Resurs 01 Rocket 2.0 20:01:37 10° S 20:06:02 66° WSW 20:10:28 10° NNW
Cosmos 1174 4.2 20:02:43 10° S 20:07:16 43° ESE 20:08:09 37° E
HJ-1C 4.5 20:06:37 10° S 20:09:51 45° W 20:13:07 10° NNW
Cosmos 1328 4.3 20:08:44 10° N 20:12:09 38° ENE 20:12:09 38° ENE
USA 215 3.2 20:06:22 10° NE 20:12:56 73° SE 20:19:27 10° SW
Cosmos 158 Rocket 3.9 20:08:42 10° S 20:13:23 50° ESE 20:18:07 10° NNE
FENGYUN 3A 3.5 20:10:06 10° SSE 20:15:28 81° ENE 20:20:54 10° NNW
CZ-2D R/B 3.1 20:15:36 41° SSE 20:16:50 71° ENE 20:20:43 10° N
Helios 1B rocket 3.4 20:19:11 10° N 20:23:10 49° WNW 20:27:08 10° SSW
Nadezhda 4 Rocket 4.3 20:17:37 10° NNW 20:23:52 69° W 20:30:00 10° S
Cosmos 2279 Rocket 4.3 20:25:11 38° E 20:25:42 39° E 20:31:22 10° NNE
Abrixas 3.3 20:24:29 10° WSW 20:26:59 51° WNW 20:26:59 51° WNW
H-2A R/B 2.7 20:28:07 49° S 20:29:07 84° WSW 20:33:00 10° NNW
GP-B 3.0 20:25:36 10° N 20:30:03 67° E 20:30:36 60° SE
CZ-4B DEB 3.6 20:31:56 45° SW 20:32:27 51° W 20:35:40 10° NNW
Cosmos 1092 Rocket 4.0 20:26:40 10° N 20:32:53 80° W 20:39:01 10° S
ERS-1 Rocket 3.6 20:35:35 39° NE 20:35:35 39° NE 20:39:42 10° N
GPS 2-04 Rocket1 4.4 20:35:01 10° SW 20:36:40 20° SSW 20:36:40 20° SSW
Gbstr 26 Del rocket 3.2 20:34:27 10° SW 20:38:58 78° SE 20:39:48 61° ENE
Cosmos 1655 Rocket 4.0 20:32:57 10° N 20:39:06 60° E 20:40:33 48° SE
Cosmos 1943 Rocket 2.5 20:34:11 10° NNW 20:39:34 44° ENE 20:39:37 44° ENE
Cosmos 2142 Rocket 4.4 20:35:01 10° S 20:41:22 83° E 20:47:49 10° N
Cosmos 2369 Rocket 2.2 20:37:38 10° NNW 20:43:19 80° WSW 20:45:20 42° SSE
H-2A R/B 4.4 20:46:02 14° NNE 20:46:02 14° NNE 20:46:59 10° NNE
Cosmos 1943 3.1 20:39:13 10° SSW 20:44:51 84° WNW 20:50:31 10° NNE
Cosmos 2026 Rocket 3.8 20:38:58 10° N 20:45:05 73° E 20:46:55 47° SSE
Cosmos 1110 Rocket 3.9 20:40:31 10° NNW 20:45:49 70° ENE 20:46:09 68° E
Cosmos 1634 Rocket 4.0 20:43:02 10° S 20:49:17 81° W 20:55:31 10° N
Cosmos 2058 4.0 20:45:24 10° N 20:47:53 35° N 20:47:53 35° N
Cosmos 2151 3.2 20:48:11 10° NNW 20:52:06 68° WNW 20:52:06 68° WNW
Cosmos 2263 4.1 20:46:58 10° NNW 20:52:47 89° ENE 20:53:42 65° SSE
Cosmos 839 Rocket 4.3 20:54:15 10° NW 21:01:49 72° WSW 21:03:47 47° S
Meteor 2-20 4.4 21:06:55 10° N 21:12:34 71° NE 21:12:34 71° NE
Meteor 2-1 Rocket 4.3 21:16:32 78° NNW 21:16:32 78° NNW 21:22:05 10° N
Cosmos 1331 Rocket 4.3 21:12:41 10° NNW 21:17:26 65° WNW 21:17:26 65° WNW
CENTAUR R/B 3.1 21:14:47 10° SW 21:20:49 55° NW 21:27:39 10° NNE
Envisat 4.3 21:42:35 37° NW 21:42:35 37° NW 21:45:51 10° NNW
USA 215 4.2 21:53:08 30° NNE 21:55:40 42° NNW 22:01:42 10° W
Cosmos 1943 Rocket 4.2 22:18:24 10° NW 22:21:09 22° WNW 22:21:09 22° WNW
CZ-3A R/B 4.4 22:03:18 10° SW 22:27:52 70° SW 22:27:52 70° SW
